Tiempo atmosférico en la estación meteorológica de Vallehermoso, Alto Igualero, Santa Cruz de Tenerife (1475 m.)



Fecha
DESCASC
Temp. máxima en grados centígrados (hora)
DESCASC
Temp. mínima en grados centígrados (hora)
DESCASC
Temp. media en grados centígrados
DESCASC
Racha de viento máxima en m/sg (hora)
DESCASC
Velocidad máxima media en intervalos de 10 minutos(hora)
DESCASC
Precipitaciones diarias en mm
DESCASC
Precipitaciones de 00:00 a 06:00 en mm
DESCASC
Precipitaciones de 06:00 a 12:00 en mm
DESCASC
Precipitaciones de 12:00 a 18:00 en mm
DESCASC
Precipitaciones de 18:00 a 24:00 en mm
DESCASC
14-12-2019 10.4 (14:50) 6.1 (00:30) 8.2 11.39 (02:50) 9.44 (03:00) 0.4 0.2 0.2 0 0
13-12-2019 10.5 (16:00) 5 (05:10) 7.8 15.56 (03:20) 12.78 (02:50) 0.4 0 0.2 0 0.2
12-12-2019 9.3 (13:10) 5.6 (23:20) 7.5 18.06 (19:00) 13.33 (08:40) 1.6 0.2 0 0.6 0.8
11-12-2019 9.7 (12:50) 5.9 (00:00) 7.8 15.83 (23:00) 12.5 (23:00) 0.4 0 0.2 0 0.2
10-12-2019 14.8 (14:10) 5.6 (03:20) 10.2 16.11 (21:40) 12.78 (18:00) 0.2 0 0 0 0.2
09-12-2019 10.9 (16:10) 5.2 (22:30) 8 20.28 (00:40) 15.56 (01:20) 0.2 0 0 0 0.2
08-12-2019 8.1 (15:10) 5.6 (00:00) 6.9 25 (20:30) 17.78 (05:10) 0.6 0.2 0 0 0.4
07-12-2019 8.3 (15:40) 6.2 (00:00) 7.3 24.44 (20:10) 18.06 (19:50) 3 1.8 1 0 0.2
06-12-2019 8 (12:30) 6.2 (00:00) 7.1 28.89 (05:00) 19.72 (08:20) 6.2 2.2 2.2 1 0.8
05-12-2019 9.8 (00:20) 5.2 (00:00) 7.5 26.11 (05:20) 18.06 (05:30) 23.8 6.4 2.8 10 4.6
04-12-2019 9.9 (23:40) 5.4 (06:30) 7.6 19.17 (19:20) 14.17 (19:30) 5 0 0.6 0 4.4
03-12-2019 7.8 (05:00) 6.1 (00:00) 7 18.89 (04:10) 12.78 (00:10) 5.6 2.8 2.2 0.4 0.2
02-12-2019 12.9 (00:00) 7 (00:00) 9.9 20.28 (21:00) 13.61 (21:00) 0.6 0 0 0 0.6
01-12-2019 20 (14:40) 12.5 (00:00) 16.3 9.44 (18:40) 7.78 (18:20) 0 0 0 0 0
30-11-2019 18.7 (14:00) 14.8 (00:00) 16.8 13.33 (02:30) 10.83 (00:30) 0 0 0 0 0
29-11-2019 16.9 (14:00) 13.5 (00:00) 15.2 18.61 (11:10) 14.17 (11:20) 0 0 0 0 0
28-11-2019 14.6 (12:10) 10.8 (00:00) 12.7 12.22 (14:00) 10 (14:00) 0 0 0 0 0
27-11-2019 16.7 (16:20) 8.5 (00:00) 12.6 9.44 (00:10) 7.22 (02:00) 0 0 0 0 0
26-11-2019 14.5 (14:20) 8.3 (00:00) 11.4 10 (22:40) 8.89 (22:40) 0 0 0 0 0
25-11-2019 16.6 (17:10) 8.6 (22:30) 12.6 10.28 (00:40) 9.72 (00:40) 0 0 0 0 0
24-11-2019 11.8 (13:10) 7.9 (00:00) 9.9 16.11 (00:50) 12.22 (07:50) 3 2.2 0.6 0 0.2
23-11-2019 12.1 (04:00) 8.8 (00:00) 10.5 18.89 (20:50) 15.28 (20:50) 0.6 0.4 0.2 0 0
22-11-2019 14.3 (10:50) 8.3 (00:00) 11.3 11.39 (00:10) 8.33 (00:10) 0.4 0.4 0 0 0
21-11-2019 12.5 (13:00) 7 (00:00) 9.8 14.17 (17:10) 10.83 (17:10) 0.2 0.2 0 0 0
20-11-2019 13.6 (13:00) 7.6 (00:10) 10.6 9.44 (14:50) 6.94 (16:10) 0.4 0.2 0 0.2 0
19-11-2019 11.2 (13:00) 6.4 (00:00) 8.8 14.17 (00:20) 10.56 (00:20) 0.4 0.4 0 0 0
18-11-2019 8.9 (14:20) 6.5 (00:00) 7.7 16.67 (06:00) 13.33 (00:10) 1.8 0.2 0.4 1 0.2
17-11-2019 8 (10:20) 6.7 (00:00) 7.3 22.5 (20:10) 16.94 (20:10) 2.6 0.6 0.6 0.2 1.2
16-11-2019 8.2 (20:30) 6.1 (00:00) 7.1 28.06 (08:50) 20 (09:10) 4 1.4 2.2 0 0.4

Gráficas

Temp. máximas Temp. mínimas Temp. medias Precipitaciones Rachas de viento máximas Velocidades máximas media en intervalos de 10 minutos

Datos horarios

Fecha y hora oficial Temperatura (ºC) Velocidad del viento (km/h) Dirección del viento Racha (km/h) Dirección de racha Precipitación (mm) Presión (hPa) Tendencia (hPa) Humedad (%)
2019-12-15 23:00:00 6.6 43 Oeste 56 Oeste 0 -- -- 100
2019-12-15 22:00:00 7.2 40 Oeste 53 Noroeste 0 -- -- 100
2019-12-15 21:00:00 6.7 36 Noroeste 52 Noroeste 0 -- -- 100
2019-12-15 20:00:00 7.4 27 Oeste 39 Oeste 0 -- -- 100
2019-12-15 19:00:00 7.9 22 Oeste 35 Oeste 0 -- -- 100
2019-12-15 18:00:00 8.2 20 Oeste 31 Noroeste 0 -- -- 100
2019-12-15 17:00:00 9.1 20 Oeste 30 Oeste 0 -- -- 94
2019-12-15 16:00:00 11.2 14 Oeste 19 Oeste 0 -- -- 84
2019-12-15 15:00:00 12 14 Sudoeste 20 Sudoeste 0 -- -- 83
2019-12-15 14:00:00 12.1 6 Oeste 19 Oeste 0 -- -- 76
2019-12-15 13:00:00 12.6 6 Sudoeste 17 Sudoeste 0 -- -- 81
2019-12-15 12:00:00 11.2 5 Sudoeste 13 Sudoeste 0 -- -- 92
2019-12-15 11:00:00 9.6 3 Sudoeste 9 Nordeste 0 -- -- 95
2019-12-15 10:00:00 9 2 Norte 18 Norte 0 -- -- 93
2019-12-15 09:00:00 7.5 11 Nordeste 19 Norte 0 -- -- 91
2019-12-15 08:00:00 6.9 8 Norte 17 Norte 0 -- -- 99
2019-12-15 07:00:00 7.9 8 Este 23 Nordeste 0 -- -- 66
2019-12-15 06:00:00 7.1 16 Nordeste 27 Nordeste 0 -- -- 100
2019-12-15 05:00:00 6.5 16 Nordeste 30 Nordeste 0 -- -- 100
2019-12-15 04:00:00 7 24 Nordeste 29 Este 0 -- -- 100
2019-12-15 03:00:00 7 14 Este 29 Nordeste 0 -- -- 100
2019-12-15 02:00:00 7.4 4 Nordeste 32 Nordeste 0 -- -- 100
2019-12-15 01:00:00 7.3 27 Este 35 Este 0.2 -- -- 100
2019-12-15 00:00:00 7.6 27 Nordeste 33 Nordeste 0 -- -- 100
2019-12-14 23:00:00 7.5 27 Nordeste 37 Nordeste 0 -- -- 100
2019-12-14 22:00:00 7.6 28 Nordeste 37 Este 0 -- -- 100
2019-12-14 21:00:00 7.6 29 Nordeste 38 Nordeste 0 -- -- 100
2019-12-14 20:00:00 7.8 28 Nordeste 35 Nordeste 0 -- -- 100
2019-12-14 19:00:00 8 26 Nordeste 34 Nordeste 0 -- -- 100
2019-12-14 18:00:00 7.9 26 Nordeste 31 Nordeste 0 -- -- 100
2019-12-14 17:00:00 8.7 18 Nordeste 29 Nordeste 0 -- -- 100
2019-12-14 16:00:00 9.4 15 Nordeste 26 Este 0 -- -- 100
2019-12-14 15:00:00 9.8 15 Este 23 Este 0 -- -- 100
2019-12-14 14:00:00 9.9 14 Este 35 Este 0 -- -- 100
2019-12-14 13:00:00 8.9 29 Nordeste 36 Este 0 -- -- 100
2019-12-14 12:00:00 9.2 26 Este 37 Nordeste 0 -- -- 100
2019-12-14 11:00:00 8.6 28 Nordeste 41 Nordeste 0 -- -- 100
2019-12-14 10:00:00 8.1 32 Nordeste 39 Nordeste 0 -- -- 100
2019-12-14 09:00:00 7.2 31 Nordeste 38 Nordeste 0 -- -- 100
2019-12-14 08:00:00 6.9 33 Nordeste 41 Nordeste 0 -- -- 100
2019-12-14 07:00:00 7.1 28 Nordeste 35 Nordeste 0.2 -- -- 100
2019-12-14 06:00:00 7.3 27 Nordeste 33 Nordeste 0 -- -- 100
2019-12-14 05:00:00 7 27 Nordeste 35 Nordeste 0 -- -- 100
2019-12-14 04:00:00 6.9 31 Nordeste 39 Nordeste 0 -- -- 100
2019-12-14 03:00:00 6.7 34 Nordeste 41 Nordeste 0.2 -- -- 100
2019-12-14 02:00:00 6.4 30 Este 35 Nordeste 0 -- -- 100
2019-12-14 01:00:00 6.6 27 Nordeste 36 Este 0 -- -- 100
2019-12-14 00:00:00 6.5 29 Nordeste 40 Nordeste 0 -- -- 100
2019-12-13 23:00:00 6.4 29 Nordeste 39 Nordeste 0 -- -- 100
2019-12-13 22:00:00 6.3 26 Nordeste 42 Nordeste 0.2 -- -- 100
2019-12-13 21:00:00 6.4 35 Nordeste 40 Nordeste 0 -- -- 100
2019-12-13 20:00:00 6.1 30 Nordeste 37 Nordeste 0 -- -- 100
2019-12-13 19:00:00 6 31 Nordeste 40 Nordeste 0 -- -- 100
2019-12-13 18:00:00 6.1 26 Nordeste 35 Nordeste 0 -- -- 100
2019-12-13 17:00:00 6.4 28 Nordeste 33 Nordeste 0 -- -- 100
2019-12-13 16:00:00 10.5 27 Nordeste 31 Nordeste 0 -- -- 41
2019-12-13 15:00:00 7.6 18 Este 34 Nordeste 0 -- -- 100
2019-12-13 14:00:00 7.6 20 Nordeste 36 Nordeste 0 -- -- 100
2019-12-13 13:00:00 7.5 27 Nordeste 38 Nordeste 0 -- -- 100
2019-12-13 12:00:00 7.1 25 Nordeste 36 Nordeste 0 -- -- 100
2019-12-13 11:00:00 6.8 22 Este 40 Nordeste 0 -- -- 100
2019-12-13 10:00:00 6.1 35 Nordeste 54 Nordeste 0 -- -- 100
2019-12-13 09:00:00 5.6 44 Nordeste 55 Nordeste 0 -- -- 100
2019-12-13 08:00:00 5 40 Nordeste 48 Nordeste 0 -- -- 100
2019-12-13 07:00:00 5.4 40 Nordeste 48 Nordeste 0.2 -- -- 100
2019-12-13 06:00:00 5.3 41 Nordeste 53 Nordeste 0 -- -- 100
2019-12-13 05:00:00 5.3 44 Nordeste 54 Nordeste 0 -- -- 100
2019-12-13 04:00:00 5.6 39 Nordeste 56 Nordeste 0 -- -- 100
2019-12-13 03:00:00 5.5 44 Nordeste 55 Nordeste 0 -- -- 100
2019-12-13 02:00:00 6.2 42 Nordeste 54 Nordeste 0 -- -- 100
2019-12-13 01:00:00 5.6 40 Nordeste 54 Nordeste 0 -- -- 100
2019-12-13 00:00:00 5.6 45 Nordeste 57 Nordeste 0 -- -- 100
2019-12-12 23:00:00 6.3 48 Nordeste 59 Nordeste 0 -- -- 100
2019-12-12 22:00:00 6.4 42 Nordeste 56 Nordeste 0.2 -- -- 100
2019-12-12 21:00:00 6.9 43 Nordeste 58 Nordeste 0 -- -- 100
2019-12-12 20:00:00 7.4 40 Nordeste 62 Nordeste 0.2 -- -- 100
2019-12-12 19:00:00 7.8 47 Nordeste 65 Nordeste 0.4 -- -- 100
2019-12-12 18:00:00 8 45 Nordeste 59 Nordeste 0.2 -- -- 100
2019-12-12 17:00:00 8.3 44 Nordeste 58 Nordeste 0.2 -- -- 100
2019-12-12 16:00:00 9.1 38 Nordeste 59 Nordeste 0.2 -- -- 100
2019-12-12 15:00:00 9 43 Nordeste 59 Nordeste 0 -- -- 100
2019-12-12 14:00:00 9.1 40 Nordeste 58 Nordeste 0 -- -- 100
2019-12-12 13:00:00 9.2 32 Nordeste 58 Nordeste 0 -- -- 100
2019-12-12 12:00:00 8.7 38 Nordeste 55 Nordeste 0 -- -- 100
2019-12-12 11:00:00 8.2 36 Nordeste 53 Nordeste 0 -- -- 100
2019-12-12 10:00:00 7.9 38 Nordeste 60 Nordeste 0 -- -- 100
2019-12-12 09:00:00 7.1 44 Nordeste 61 Nordeste 0 -- -- 100
2019-12-12 08:00:00 6.5 40 Nordeste 53 Nordeste 0 -- -- 100
2019-12-12 07:00:00 6.6 40 Nordeste 51 Nordeste 0 -- -- 100
2019-12-12 06:00:00 6.5 38 Nordeste 52 Nordeste 0.2 -- -- 100
2019-12-12 05:00:00 6.7 37 Nordeste 51 Nordeste 0 -- -- 100
2019-12-12 04:00:00 6.6 37 Nordeste 51 Nordeste 0 -- -- 100
2019-12-12 03:00:00 6.1 34 Nordeste 46 Nordeste 0 -- -- 100
2019-12-12 02:00:00 6.3 36 Nordeste 46 Nordeste 0 -- -- 100
2019-12-12 01:00:00 7 36 Nordeste 50 Nordeste 0 -- -- 100
2019-12-12 00:00:00 6 40 Nordeste 51 Nordeste 0 -- -- 100
2019-12-11 23:00:00 6.8 45 Nordeste 57 Nordeste 0.2 -- -- 100
2019-12-11 22:00:00 6 39 Nordeste 48 Nordeste 0 -- -- 100
2019-12-11 21:00:00 6.8 38 Nordeste 49 Nordeste 0 -- -- 100
2019-12-11 20:00:00 7.2 35 Nordeste 42 Nordeste 0 -- -- 100
2019-12-11 19:00:00 7.5 31 Nordeste 41 Nordeste 0 -- -- 100
2019-12-11 18:00:00 7.8 32 Nordeste 42 Nordeste 0 -- -- 100
2019-12-11 17:00:00 8.4 32 Nordeste 44 Nordeste 0 -- -- 100
2019-12-11 16:00:00 8.6 32 Nordeste 46 Nordeste 0 -- -- 100
2019-12-11 15:00:00 8.8 35 Nordeste 49 Nordeste 0 -- -- 100
2019-12-11 14:00:00 9 40 Nordeste 56 Nordeste 0 -- -- 100
2019-12-11 13:00:00 9.4 37 Este 51 Nordeste 0 -- -- 100
2019-12-11 12:00:00 9.2 37 Nordeste 46 Nordeste 0 -- -- 100
2019-12-11 11:00:00 8.9 36 Este 42 Este 0 -- -- 100
2019-12-11 10:00:00 8.6 29 Este 39 Este 0 -- -- 100
2019-12-11 09:00:00 8.8 27 Este 35 Nordeste 0 -- -- 100
2019-12-11 08:00:00 8.6 27 Nordeste 39 Nordeste 0 -- -- 100
2019-12-11 07:00:00 7.9 31 Nordeste 36 Nordeste 0.2 -- -- 100
2019-12-11 06:00:00 8.5 27 Nordeste 39 Este 0 -- -- 100
2019-12-11 05:00:00 8.1 30 Nordeste 40 Nordeste 0 -- -- 100
2019-12-11 04:00:00 8 32 Nordeste 46 Nordeste 0 -- -- 100
2019-12-11 03:00:00 8.8 33 Nordeste 49 Nordeste 0 -- -- 100
2019-12-11 02:00:00 8.5 38 Nordeste 53 Nordeste 0 -- -- 100
2019-12-11 01:00:00 8.4 44 Nordeste 52 Nordeste 0 -- -- 100
2019-12-11 00:00:00 8.6 38 Nordeste 49 Nordeste 0.2 -- -- 100
2019-12-10 23:00:00 8.9 36 Nordeste 51 Nordeste 0 -- -- 100
2019-12-10 22:00:00 8.5 40 Nordeste 58 Nordeste 0 -- -- 100
2019-12-10 21:00:00 8.4 39 Este 57 Nordeste 0 -- -- 100
2019-12-10 20:00:00 8.6 38 Este 53 Nordeste 0 -- -- 100
2019-12-10 19:00:00 8.4 41 Nordeste 55 Nordeste 0 -- -- 98
2019-12-10 18:00:00 10.3 46 Este 52 Nordeste 0 -- -- 74
2019-12-10 17:00:00 9.3 18 Este 31 Nordeste 0 -- -- 95
2019-12-10 16:00:00 9.3 15 Nordeste 21 Nordeste 0 -- -- 94
2019-12-10 15:00:00 11.7 11 Nordeste 17 Nordeste 0 -- -- 81
2019-12-10 14:00:00 14.5 3 Norte 11 Nordeste 0 -- -- 66
2019-12-10 13:00:00 14.4 4 Este 19 Este 0 -- -- 67
2019-12-10 12:00:00 13.2 13 Este 28 Este 0 -- -- 51
2019-12-10 11:00:00 12.5 17 Este 25 Este 0 -- -- 49
2019-12-10 10:00:00 11.6 24 Este 38 Este 0 -- -- 32
2019-12-10 09:00:00 11 37 Este 44 Este 0 -- -- 28
2019-12-10 08:00:00 10.1 39 Este 47 Este 0 -- -- 23
2019-12-10 07:00:00 9.7 39 Este 47 Este 0 -- -- 29
2019-12-10 06:00:00 10.1 30 Este 39 Este 0 -- -- 26
2019-12-10 05:00:00 10.3 29 Este 35 Este 0 -- -- 29
2019-12-10 04:00:00 6.5 29 Nordeste 33 Nordeste 0 -- -- 69
2019-12-10 03:00:00 5.7 30 Nordeste 45 Nordeste 0 -- -- 96
2019-12-10 02:00:00 6.1 37 Nordeste 44 Nordeste 0 -- -- 93
2019-12-10 01:00:00 7 36 Nordeste 41 Nordeste 0 -- -- 67
2019-12-10 00:00:00 7.7 35 Nordeste 40 Nordeste 0 -- -- 50
2019-12-09 23:00:00 6.1 27 Este 33 Este 0.2 -- -- 100
2019-12-09 22:00:00 6.8 27 Este 42 Nordeste 0 -- -- 100
2019-12-09 21:00:00 7.2 38 Nordeste 47 Nordeste 0 -- -- 100
2019-12-09 20:00:00 7.1 35 Nordeste 43 Nordeste 0 -- -- 100
2019-12-09 19:00:00 7.8 31 Nordeste 41 Nordeste 0 -- -- 100
2019-12-09 18:00:00 7.4 23 Nordeste 31 Nordeste 0 -- -- 100
2019-12-09 17:00:00 10.5 7 Este 17 Este 0 -- -- 73
2019-12-09 16:00:00 10.8 5 Este 21 Este 0 -- -- 100
2019-12-09 15:00:00 10.3 9 Este 30 Sudeste 0 -- -- 100
2019-12-09 14:00:00 8.9 10 Este 33 Este 0 -- -- 100
2019-12-09 13:00:00 7.9 28 Este 41 Este 0 -- -- 100
2019-12-09 12:00:00 7.9 32 Este 44 Este 0 -- -- 100
2019-12-09 11:00:00 7.7 35 Este 48 Este 0 -- -- 100
2019-12-09 10:00:00 7.5 35 Este 45 Nordeste 0 -- -- 100
2019-12-09 09:00:00 6.6 38 Este 49 Este 0 -- -- 100
2019-12-09 08:00:00 6.5 29 Nordeste 45 Nordeste 0 -- -- 100
2019-12-09 07:00:00 6.1 36 Nordeste 53 Este 0 -- -- 100
2019-12-09 06:00:00 6.2 45 Nordeste 62 Este 0 -- -- 100
2019-12-09 05:00:00 6.1 39 Nordeste 58 Este 0 -- -- 100
2019-12-09 04:00:00 6.5 40 Este 62 Nordeste 0 -- -- 100
2019-12-09 03:00:00 6.7 48 Nordeste 71 Nordeste 0 -- -- 100
2019-12-09 02:00:00 6.4 53 Nordeste 71 Nordeste 0 -- -- 100
2019-12-09 01:00:00 7.2 54 Nordeste 73 Nordeste 0 -- -- 100
2019-12-09 00:00:00 7.2 52 Nordeste 78 Nordeste 0.2 -- -- 100
2019-12-08 23:00:00 6.9 58 Nordeste 84 Nordeste 0 -- -- 100
2019-12-08 22:00:00 7.1 52 Nordeste 80 Este 0 -- -- 100
2019-12-08 21:00:00 7.3 56 Nordeste 90 Nordeste 0.2 -- -- 100
2019-12-08 20:00:00 7.3 51 Nordeste 80 Nordeste 0 -- -- 100
2019-12-08 19:00:00 7.4 54 Nordeste 74 Nordeste 0 -- -- 100
2019-12-08 18:00:00 7 51 Nordeste 72 Este 0 -- -- 100
2019-12-08 17:00:00 7.7 50 Nordeste 71 Este 0 -- -- 100
2019-12-08 16:00:00 8.1 48 Nordeste 71 Este 0 -- -- 100
2019-12-08 15:00:00 8 44 Nordeste 68 Nordeste 0 -- -- 100
2019-12-08 14:00:00 7.5 46 Este 81 Este 0 -- -- 100
2019-12-08 13:00:00 7.1 58 Este 84 Este 0 -- -- 100
2019-12-08 12:00:00 7.6 53 Nordeste 76 Nordeste 0 -- -- 100
2019-12-08 11:00:00 6.5 44 Nordeste 76 Este 0 -- -- 100
2019-12-08 10:00:00 6.9 50 Este 74 Este 0 -- -- 100
2019-12-08 09:00:00 6.1 55 Nordeste 80 Nordeste 0 -- -- 100
2019-12-08 08:00:00 6 58 Nordeste 76 Nordeste 0 -- -- 100
2019-12-08 07:00:00 6.9 45 Nordeste 78 Nordeste 0 -- -- 100
2019-12-08 06:00:00 6.9 57 Nordeste 79 Nordeste 0 -- -- 100
2019-12-08 05:00:00 6.5 62 Nordeste 79 Nordeste 0 -- -- 100
2019-12-08 04:00:00 6.8 51 Nordeste 72 Nordeste 0.2 -- -- 100
2019-12-08 03:00:00 7.3 46 Nordeste 75 Este 0 -- -- 100
2019-12-08 02:00:00 7.4 46 Nordeste 68 Este 0 -- -- 100
2019-12-08 01:00:00 7.3 45 Nordeste 76 Nordeste 0 -- -- 100
2019-12-08 00:00:00 7.7 51 Nordeste 80 Nordeste 0 -- -- 100
2019-12-07 23:00:00 7.7 51 Nordeste 84 Nordeste 0 -- -- 100
2019-12-07 22:00:00 7.2 63 Nordeste 83 Nordeste 0 -- -- 100
2019-12-07 21:00:00 6.2 64 Nordeste 88 Nordeste 0 -- -- 100
2019-12-07 20:00:00 6.5 63 Nordeste 85 Nordeste 0.2 -- -- 100
2019-12-07 19:00:00 6.6 55 Nordeste 77 Nordeste 0 -- -- 100
2019-12-07 18:00:00 7.5 50 Nordeste 75 Nordeste 0 -- -- 100
2019-12-07 17:00:00 8.2 48 Nordeste 70 Nordeste 0 -- -- 100
2019-12-07 16:00:00 8.2 45 Nordeste 76 Nordeste 0 -- -- 100
2019-12-07 15:00:00 7.9 46 Nordeste 63 Nordeste 0 -- -- 100
2019-12-07 14:00:00 8 42 Nordeste 73 Este 0 -- -- 100
2019-12-07 13:00:00 7.5 49 Nordeste 78 Este 0 -- -- 100
2019-12-07 12:00:00 7.7 47 Nordeste 67 Nordeste 0 -- -- 100
2019-12-07 11:00:00 8.1 33 Este 62 Nordeste 0 -- -- 100
2019-12-07 10:00:00 7 42 Nordeste 61 Este 0 -- -- 100
2019-12-07 09:00:00 6.9 43 Nordeste 68 Nordeste 0 -- -- 100
2019-12-07 08:00:00 7.3 45 Nordeste 64 Nordeste 0.2 -- -- 100
2019-12-07 07:00:00 7.2 43 Nordeste 68 Nordeste 0.8 -- -- 100
2019-12-07 06:00:00 7.1 57 Nordeste 79 Nordeste 0.2 -- -- 100
2019-12-07 05:00:00 7.2 56 Nordeste 78 Nordeste 0 -- -- 100
2019-12-07 04:00:00 6.9 47 Nordeste 76 Nordeste 1 -- -- 100
2019-12-07 03:00:00 7.5 50 Nordeste 81 Nordeste 0.2 -- -- 100
2019-12-07 02:00:00 7.2 42 Nordeste 75 Nordeste 0.2 -- -- 100
2019-12-07 01:00:00 7.3 57 Nordeste 78 Nordeste 0.2 -- -- 100
2019-12-07 00:00:00 7.3 53 Nordeste 79 Nordeste 0.4 -- -- 100
2019-12-06 23:00:00 7.3 54 Nordeste 78 Nordeste 0 -- -- 100
2019-12-06 22:00:00 7.6 39 Nordeste 73 Nordeste 0.4 -- -- 100
2019-12-06 21:00:00 7.2 39 Nordeste 76 Norte 0 -- -- 100
2019-12-06 20:00:00 7.1 50 Nordeste 88 Nordeste 0 -- -- 100
2019-12-06 19:00:00 7 53 Nordeste 86 Nordeste 0 -- -- 100
2019-12-06 18:00:00 6.9 52 Nordeste 81 Norte 0 -- -- 100
2019-12-06 17:00:00 6.9 48 Nordeste 78 Nordeste 0 -- -- 100
2019-12-06 16:00:00 6.9 53 Nordeste 85 Nordeste 0 -- -- 100
2019-12-06 15:00:00 7.2 50 Nordeste 93 Nordeste 0.4 -- -- 100
2019-12-06 14:00:00 7.6 59 Nordeste 85 Nordeste 0.2 -- -- 100
2019-12-06 13:00:00 8 48 Nordeste 92 Nordeste 0.4 -- -- 100
2019-12-06 12:00:00 7.4 70 Nordeste 94 Nordeste 0.8 -- -- 100
2019-12-06 11:00:00 7.2 66 Nordeste 91 Nordeste 0 -- -- 100
2019-12-06 10:00:00 7.1 64 Nordeste 90 Nordeste 0.6 -- -- 100
2019-12-06 09:00:00 7.3 65 Nordeste 100 Nordeste 0 -- -- 100
2019-12-06 08:00:00 6.7 62 Nordeste 94 Nordeste 0.2 -- -- 100
2019-12-06 07:00:00 7.2 57 Nordeste 96 Nordeste 0.6 -- -- 100
2019-12-06 06:00:00 6.7 55 Nordeste 90 Nordeste 0.2 -- -- 100
2019-12-06 05:00:00 7.1 53 Nordeste 104 Nordeste 1.8 -- -- 100
2019-12-06 04:00:00 6.8 47 Nordeste 84 Nordeste 0 -- -- 100
2019-12-06 03:00:00 6.2 48 Nordeste 87 Nordeste 0 -- -- 100
2019-12-06 02:00:00 6.8 51 Nordeste 99 Nordeste 0.2 -- -- 100
2019-12-06 01:00:00 6.5 41 Nordeste 86 Norte 0 -- -- 100
2019-12-06 00:00:00 6.3 48 Nordeste 85 Norte 1.4 -- -- 100
2019-12-05 23:00:00 6.7 46 Nordeste 81 Nordeste 2 -- -- 100
2019-12-05 22:00:00 6.6 47 Nordeste 86 Nordeste 1 -- -- 100
2019-12-05 21:00:00 6.1 45 Nordeste 77 Nordeste 0 -- -- 100
2019-12-05 20:00:00 5.8 46 Nordeste 80 Nordeste 0 -- -- 100
2019-12-05 19:00:00 6.2 45 Norte 90 Norte 0.2 -- -- 100
2019-12-05 18:00:00 5.6 44 Nordeste 83 Nordeste 2 -- -- 100
2019-12-05 17:00:00 6.2 42 Norte 78 Norte 3.8 -- -- 100
2019-12-05 16:00:00 6.9 47 Norte 84 Norte 1 -- -- 100
2019-12-05 15:00:00 6.5 40 Norte 79 Norte 1 -- -- 100
2019-12-05 14:00:00 7 39 Norte 80 Norte 1 -- -- 100
2019-12-05 13:00:00 6.4 51 Norte 89 Nordeste 1.2 -- -- 100
2019-12-05 12:00:00 7.1 40 Norte 73 Norte 1.2 -- -- 100
2019-12-05 11:00:00 6 37 Norte 77 Norte 0.2 -- -- 100
2019-12-05 10:00:00 5.9 38 Nordeste 69 Norte 0.8 -- -- 100
2019-12-05 09:00:00 5.7 34 Norte 81 Norte 0 -- -- 100
2019-12-05 08:00:00 6 37 Norte 82 Norte 0.6 -- -- 100
2019-12-05 07:00:00 5.9 48 Norte 91 Norte 0 -- -- 100
2019-12-05 06:00:00 5.9 47 Norte 94 Norte 0.2 -- -- 100
2019-12-05 05:00:00 5.8 54 Norte 86 Norte 0.2 -- -- 100
2019-12-05 04:00:00 6.5 46 Norte 87 Norte 0 -- -- 100
2019-12-05 03:00:00 6.4 55 Norte 73 Norte 1.8 -- -- 100
2019-12-05 02:00:00 7.6 46 Norte 76 Noroeste 2 -- -- 100
2019-12-05 01:00:00 9.3 45 Norte 68 Norte 2.2 -- -- 100
2019-12-05 00:00:00 9.7 41 Norte 63 Norte 2.4 -- -- 100
2019-12-04 23:00:00 9.5 34 Noroeste 60 Noroeste 1.4 -- -- 100
2019-12-04 22:00:00 8.8 37 Norte 57 Norte 0.2 -- -- 100
2019-12-04 21:00:00 8.4 38 Norte 60 Norte 0.2 -- -- 100
2019-12-04 20:00:00 8.4 44 Norte 69 Norte 0.2 -- -- 100
2019-12-04 19:00:00 8.2 44 Norte 58 Norte 0 -- -- 100
2019-12-04 18:00:00 6.9 35 Norte 60 Norte 0 -- -- 100
2019-12-04 17:00:00 6.8 44 Norte 63 Norte 0 -- -- 100
2019-12-04 16:00:00 7.5 31 Norte 45 Norte 0 -- -- 100
2019-12-04 15:00:00 7.7 23 Norte 47 Norte 0 -- -- 100
2019-12-04 14:00:00 7.9 24 Norte 45 Nordeste 0 -- -- 100
2019-12-04 13:00:00 7.9 22 Norte 49 Norte 0 -- -- 100
2019-12-04 12:00:00 7.9 22 Norte 42 Noroeste 0.4 -- -- 100
2019-12-04 11:00:00 7.9 16 Nordeste 49 Norte 0 -- -- 100
2019-12-04 10:00:00 6.7 23 Norte 42 Norte 0 -- -- 100
2019-12-04 09:00:00 6.3 27 Norte 45 Nordeste 0.2 -- -- 100
2019-12-04 08:00:00 6.4 13 Nordeste 39 Nordeste 0 -- -- 100
2019-12-04 07:00:00 5.7 17 Nordeste 40 Nordeste 0 -- -- 100
2019-12-04 06:00:00 5.9 17 Nordeste 34 Nordeste 0 -- -- 100
2019-12-04 05:00:00 6.4 13 Nordeste 35 Nordeste 0 -- -- 100
2019-12-04 04:00:00 6.6 22 Nordeste 36 Norte 0 -- -- 100
2019-12-04 03:00:00 6 21 Nordeste 46 Nordeste 0 -- -- 100
2019-12-04 02:00:00 6.5 28 Nordeste 46 Nordeste 0 -- -- 100
2019-12-04 01:00:00 6 33 Nordeste 55 Este 0 -- -- 100
2019-12-04 00:00:00 6.3 32 Nordeste 57 Nordeste 0 -- -- 100
2019-12-03 23:00:00 6.7 37 Nordeste 62 Nordeste 0.2 -- -- 100
2019-12-03 22:00:00 6.9 30 Nordeste 51 Nordeste 0 -- -- 100
2019-12-03 21:00:00 6.6 23 Nordeste 48 Nordeste 0 -- -- 100
2019-12-03 20:00:00 6.5 32 Nordeste 46 Nordeste 0 -- -- 100
2019-12-03 19:00:00 6.5 27 Nordeste 48 Nordeste 0 -- -- 100
2019-12-03 18:00:00 6.2 36 Nordeste 57 Nordeste 0 -- -- 100
2019-12-03 17:00:00 7.1 31 Nordeste 52 Nordeste 0.2 -- -- 100
2019-12-03 16:00:00 6.9 30 Nordeste 50 Nordeste 0 -- -- 100
2019-12-03 15:00:00 6.9 33 Nordeste 58 Nordeste 0 -- -- 100
2019-12-03 14:00:00 7.1 23 Nordeste 55 Nordeste 0 -- -- 100
2019-12-03 13:00:00 7 35 Nordeste 63 Nordeste 0.2 -- -- 100
2019-12-03 12:00:00 7.5 32 Nordeste 58 Nordeste 0.2 -- -- 100
2019-12-03 11:00:00 7.7 33 Nordeste 62 Nordeste 0.4 -- -- 100
2019-12-03 10:00:00 7.1 41 Nordeste 62 Nordeste 0.4 -- -- 100
2019-12-03 09:00:00 7.6 29 Norte 55 Nordeste 0.6 -- -- 100
2019-12-03 08:00:00 6.5 34 Nordeste 60 Nordeste 0.2 -- -- 100
2019-12-03 07:00:00 6.7 39 Nordeste 60 Nordeste 0.4 -- -- 100
2019-12-03 06:00:00 7.3 36 Nordeste 59 Nordeste 1.6 -- -- 100
2019-12-03 05:00:00 7.8 36 Nordeste 68 Nordeste 0.2 -- -- 100
2019-12-03 04:00:00 6.5 43 Nordeste 67 Nordeste 0.2 -- -- 100
2019-12-03 03:00:00 7 42 Norte 65 Norte 0 -- -- 100
2019-12-03 02:00:00 6.6 40 Norte 66 Norte 0.8 -- -- 100
2019-12-03 01:00:00 6.9 40 Nordeste 65 Norte 0 -- -- 100
2019-12-03 00:00:00 7.1 46 Norte 67 Norte 0.2 -- -- 100
2019-12-02 23:00:00 7.9 40 Norte 63 Norte 0.2 -- -- 100
2019-12-02 22:00:00 8 43 Norte 71 Norte 0.2 -- -- 100
2019-12-02 21:00:00 7.9 49 Norte 73 Norte 0 -- -- 100
2019-12-02 20:00:00 7.3 41 Norte 64 Norte 0 -- -- 100
2019-12-02 19:00:00 7.4 39 Norte 58 Norte 0 -- -- 100
2019-12-02 18:00:00 7.4 35 Norte 55 Nordeste 0 -- -- 100
2019-12-02 17:00:00 7 35 Norte 48 Norte 0 -- -- 100
2019-12-02 16:00:00 7.6 32 Norte 45 Norte 0 -- -- 100
2019-12-02 15:00:00 7.7 30 Norte 46 Norte 0 -- -- 100
2019-12-02 14:00:00 8.6 28 Norte 45 Norte 0 -- -- 100
2019-12-02 13:00:00 8.4 29 Norte 46 Nordeste 0 -- -- 100
2019-12-02 12:00:00 9 30 Norte 50 Norte 0 -- -- 100
2019-12-02 11:00:00 9 27 Nordeste 51 Nordeste 0 -- -- 100
2019-12-02 10:00:00 8.4 35 Norte 57 Norte 0 -- -- 100
2019-12-02 09:00:00 8.4 39 Norte 55 Norte 0 -- -- 100
2019-12-02 08:00:00 8 40 Norte 50 Norte 0 -- -- 100
2019-12-02 07:00:00 8.5 32 Nordeste 49 Norte 0 -- -- 100
2019-12-02 06:00:00 8.2 37 Norte 54 Norte 0 -- -- 100
2019-12-02 05:00:00 8.2 33 Nordeste 46 Norte 0 -- -- 100
2019-12-02 04:00:00 7.6 33 Nordeste 40 Nordeste 0 -- -- 100
2019-12-02 03:00:00 7.6 29 Nordeste 36 Nordeste 0 -- -- 96
2019-12-02 02:00:00 9 28 Nordeste 33 Nordeste 0 -- -- 87
2019-12-02 01:00:00 11.3 30 Nordeste 33 Nordeste 0 -- -- 39
2019-12-02 00:00:00 12.9 22 Nordeste 26 Nordeste 0 -- -- 28
2019-12-01 23:00:00 13 20 Nordeste 27 Nordeste 0 -- -- 33
2019-12-01 22:00:00 12.5 17 Nordeste 24 Norte 0 -- -- 38
2019-12-01 21:00:00 13.1 23 Norte 32 Norte 0 -- -- 36
2019-12-01 20:00:00 13.1 22 Norte 28 Noroeste 0 -- -- 35
2019-12-01 19:00:00 12.9 27 Norte 34 Noroeste 0 -- -- 45
2019-12-01 18:00:00 13.9 26 Noroeste 28 Noroeste 0 -- -- 42
2019-12-01 17:00:00 15.3 14 Norte 18 Norte 0 -- -- 40
2019-12-01 16:00:00 16.6 7 Noroeste 21 Oeste 0 -- -- 38
2019-12-01 15:00:00 19.9 12 Oeste 22 Oeste 0 -- -- 57
2019-12-01 14:00:00 19.5 9 Oeste 17 Noroeste 0 -- -- 56
2019-12-01 13:00:00 17.4 5 Norte 14 Noroeste 0 -- -- 42
2019-12-01 12:00:00 16.9 4 Noroeste 14 Norte 0 -- -- 42
2019-12-01 11:00:00 16.4 6 Norte 10 Nordeste 0 -- -- 36
2019-12-01 10:00:00 16.2 2 Noroeste 12 Nordeste 0 -- -- 34
2019-12-01 09:00:00 15.7 11 Nordeste 20 Nordeste 0 -- -- 36
2019-12-01 08:00:00 14.2 18 Nordeste 20 Nordeste 0 -- -- 33
2019-12-01 07:00:00 14.2 16 Nordeste 21 Nordeste 0 -- -- 34
2019-12-01 06:00:00 14.4 19 Nordeste 23 Nordeste 0 -- -- 33
2019-12-01 05:00:00 14.8 21 Nordeste 24 Este 0 -- -- 36
2019-12-01 04:00:00 15 21 Este 24 Este 0 -- -- 36
2019-12-01 03:00:00 14.8 19 Este 23 Este 0 -- -- 35
2019-12-01 02:00:00 15 20 Este 22 Este 0 -- -- 37
2019-12-01 01:00:00 14.8 21 Nordeste 27 Nordeste 0 -- -- 38
2019-12-01 00:00:00 15.4 24 Nordeste 28 Nordeste 0 -- -- 39
2019-11-30 23:00:00 16 21 Nordeste 27 Nordeste 0 -- -- 36
2019-11-30 22:00:00 15.7 18 Nordeste 21 Nordeste 0 -- -- 35
2019-11-30 21:00:00 15.3 12 Nordeste 21 Este 0 -- -- 34
2019-11-30 20:00:00 15 18 Este 26 Este 0 -- -- 32
2019-11-30 19:00:00 15.4 20 Este 26 Sudeste 0 -- -- 32
2019-11-30 18:00:00 15.8 19 Este 25 Este 0 -- -- 32
2019-11-30 17:00:00 17 14 Sudeste 19 Este 0 -- -- 33
2019-11-30 16:00:00 17.9 13 Sudeste 28 Este 0 -- -- 34
2019-11-30 15:00:00 18.2 21 Este 34 Sudeste 0 -- -- 32
2019-11-30 14:00:00 18.7 23 Este 37 Sudeste 0 -- -- 31
2019-11-30 13:00:00 18.3 25 Este 40 Este 0 -- -- 33
2019-11-30 12:00:00 18.4 28 Este 46 Sudeste 0 -- -- 33
2019-11-30 11:00:00 17.6 33 Este 47 Este 0 -- -- 32
2019-11-30 10:00:00 17.4 30 Este 45 Este 0 -- -- 35
2019-11-30 09:00:00 16.2 36 Este 45 Sudeste 0 -- -- 35
2019-11-30 08:00:00 15.3 31 Este 42 Este 0 -- -- 35
2019-11-30 07:00:00 15.1 30 Este 45 Este 0 -- -- 36
2019-11-30 06:00:00 15.2 31 Este 40 Este 0 -- -- 35
2019-11-30 05:00:00 15.2 29 Este 40 Este 0 -- -- 36
2019-11-30 04:00:00 15.4 30 Este 45 Este 0 -- -- 35
2019-11-30 03:00:00 15.6 36 Este 48 Este 0 -- -- 34
2019-11-30 02:00:00 15.4 35 Este 47 Sudeste 0 -- -- 36
2019-11-30 01:00:00 15.4 37 Este 48 Este 0 -- -- 36
2019-11-30 00:00:00 15.3 38 Sudeste 49 Este 0 -- -- 36
2019-11-29 23:00:00 15.2 38 Sudeste 46 Sudeste 0 -- -- 37
2019-11-29 22:00:00 14.9 35 Este 46 Este 0 -- -- 38
2019-11-29 21:00:00 14.7 35 Este 46 Este 0 -- -- 41
2019-11-29 20:00:00 14.7 32 Este 50 Este 0 -- -- 41
2019-11-29 19:00:00 14.9 40 Este 49 Este 0 -- -- 40
2019-11-29 18:00:00 15.1 39 Este 54 Este 0 -- -- 42
2019-11-29 17:00:00 15.8 33 Este 54 Este 0 -- -- 42
2019-11-29 16:00:00 16.3 37 Este 52 Este 0 -- -- 42
2019-11-29 15:00:00 16.5 32 Este 58 Este 0 -- -- 41
2019-11-29 14:00:00 16.9 37 Este 57 Este 0 -- -- 38
2019-11-29 13:00:00 16.5 46 Este 63 Este 0 -- -- 41
2019-11-29 12:00:00 16.6 48 Este 67 Sudeste 0 -- -- 41
2019-11-29 11:00:00 16.1 47 Este 65 Este 0 -- -- 42
2019-11-29 10:00:00 15.7 43 Este 66 Este 0 -- -- 43
2019-11-29 09:00:00 15 39 Este 62 Este 0 -- -- 46
2019-11-29 08:00:00 14.1 42 Este 59 Este 0 -- -- 47
2019-11-29 07:00:00 13.8 38 Este 54 Sudeste 0 -- -- 49
2019-11-29 06:00:00 13.7 30 Este 42 Este 0 -- -- 50
2019-11-29 05:00:00 13.7 28 Este 42 Este 0 -- -- 50
2019-11-29 04:00:00 13.7 26 Este 39 Este 0 -- -- 49
2019-11-29 03:00:00 14.1 26 Este 35 Este 0 -- -- 47
2019-11-29 02:00:00 13.9 23 Este 36 Este 0 -- -- 47
2019-11-29 01:00:00 14.1 28 Este 35 Sudeste 0 -- -- 45
2019-11-29 00:00:00 13.5 21 Este 33 Este 0 -- -- 49
2019-11-28 23:00:00 13.4 18 Este 32 Este 0 -- -- 50
2019-11-28 22:00:00 12.5 23 Este 33 Este 0 -- -- 55
2019-11-28 21:00:00 12.5 20 Nordeste 28 Este 0 -- -- 56
2019-11-28 20:00:00 12.8 24 Este 30 Este 0 -- -- 57
2019-11-28 19:00:00 12.3 23 Este 29 Este 0 -- -- 57
2019-11-28 18:00:00 12.3 24 Este 33 Este 0 -- -- 58
2019-11-28 17:00:00 12.4 22 Este 31 Este 0 -- -- 59
2019-11-28 16:00:00 12.6 22 Sudeste 32 Sudeste 0 -- -- 62
2019-11-28 15:00:00 12.7 28 Sudeste 41 Sudeste 0 -- -- 65
2019-11-28 14:00:00 12.5 36 Sudeste 44 Sudeste 0 -- -- 64
2019-11-28 13:00:00 13.3 28 Sudeste 40 Sudeste 0 -- -- 63
2019-11-28 12:00:00 14.5 26 Este 37 Este 0 -- -- 56
2019-11-28 11:00:00 13.1 24 Este 38 Este 0 -- -- 66
2019-11-28 10:00:00 11.5 28 Este 36 Este 0 -- -- 69
2019-11-28 09:00:00 11.4 29 Este 40 Este 0 -- -- 68
2019-11-28 08:00:00 11.3 32 Este 38 Este 0 -- -- 65
2019-11-28 07:00:00 11.4 33 Este 41 Este 0 -- -- 64
2019-11-28 06:00:00 10.9 30 Este 38 Este 0 -- -- 70
2019-11-28 05:00:00 11.3 33 Este 40 Este 0 -- -- 68
2019-11-28 04:00:00 11.4 30 Este 38 Este 0 -- -- 67
2019-11-28 03:00:00 11.5 29 Este 33 Este 0 -- -- 67
2019-11-28 02:00:00 11.5 27 Este 35 Este 0 -- -- 67
2019-11-28 01:00:00 11.4 30 Este 35 Este 0 -- -- 69
2019-11-28 00:00:00 10.8 25 Este 28 Este 0 -- -- 74
2019-11-27 23:00:00 11.2 20 Este 26 Este 0 -- -- 73
2019-11-27 22:00:00 10.9 22 Este 24 Este 0 -- -- 76
2019-11-27 21:00:00 11.4 15 Sudeste 17 Este 0 -- -- 74
2019-11-27 20:00:00 11.7 8 Este 10 Este 0 -- -- 79
2019-11-27 19:00:00 12 4 Este 5 Este 0 -- -- 77
2019-11-27 18:00:00 14.6 0 Calma 12 Oeste 0 -- -- 78
2019-11-27 17:00:00 16.4 7 Oeste 13 Noroeste 0 -- -- 78
2019-11-27 16:00:00 16.2 3 Norte 17 Oeste 0 -- -- 74
2019-11-27 15:00:00 15.6 4 Este 19 Sur 0 -- -- 62
2019-11-27 14:00:00 15.6 8 Sudeste 16 Sudeste 0 -- -- 66
2019-11-27 13:00:00 15.1 9 Este 15 Este 0 -- -- 81
2019-11-27 05:00:00 -- -- -- -- -- -- -- -- --
2019-11-27 04:00:00 8.8 21 Este 27 Este 0 -- -- 100
2019-11-27 03:00:00 9.3 21 Este 32 Este 0 -- -- 100
2019-11-27 02:00:00 10 26 Este 30 Este 0 -- -- 93
2019-11-27 01:00:00 10.7 18 Este 34 Este 0 -- -- 85
2019-11-27 00:00:00 9.5 22 Este 36 Este 0 -- -- 100
2019-11-26 23:00:00 12.3 32 Este 36 Este 0 -- -- 77
2019-11-26 22:00:00 12 26 Este 32 Este 0 -- -- 81
2019-11-26 21:00:00 10.1 20 Este 28 Este 0 -- -- 93
2019-11-26 20:00:00 9.7 19 Este 25 Este 0 -- -- 100
2019-11-26 19:00:00 11.2 19 Este 26 Sudeste 0 -- -- 88
2019-11-26 18:00:00 11.7 22 Sudeste 26 Sudeste 0 -- -- 86
2019-11-26 17:00:00 13.2 16 Sudeste 27 Sudeste 0 -- -- 81
2019-11-26 16:00:00 11.9 18 Este 24 Este 0 -- -- 92
2019-11-26 15:00:00 13 10 Este 18 Sudeste 0 -- -- 91
2019-11-26 14:00:00 14.3 11 Sudeste 26 Este 0 -- -- 83
2019-11-26 13:00:00 13.8 19 Este 27 Este 0 -- -- 84
2019-11-26 12:00:00 14.3 11 Este 21 Sudeste 0 -- -- 81
2019-11-26 11:00:00 13.3 15 Este 29 Este 0 -- -- 82
2019-11-26 10:00:00 12.5 19 Este 28 Este 0 -- -- 80
2019-11-26 09:00:00 10.1 20 Este 31 Este 0 -- -- 95
2019-11-26 08:00:00 8.6 19 Este 33 Este 0 -- -- 100
2019-11-26 07:00:00 8.9 24 Este 33 Este 0 -- -- 98
2019-11-26 06:00:00 10.9 26 Este 36 Este 0 -- -- 80
2019-11-26 05:00:00 8.5 26 Este 35 Este 0 -- -- 100
2019-11-26 04:00:00 8.4 23 Este 31 Este 0 -- -- 100
2019-11-26 03:00:00 10.9 25 Este 33 Este 0 -- -- 76
2019-11-26 02:00:00 11.7 25 Este 31 Este 0 -- -- 64
2019-11-26 01:00:00 12.7 26 Este 31 Este 0 -- -- 51
2019-11-26 00:00:00 13.7 18 Sudeste 22 Este 0 -- -- 28
2019-11-25 23:00:00 9.1 4 Sudeste 24 Nordeste 0 -- -- 78
2019-11-25 22:00:00 12.7 2 Sudoeste 16 Este 0 -- -- 41
2019-11-25 21:00:00 13.9 0 Calma 6 Sudeste 0 -- -- 13
2019-11-25 20:00:00 15.6 0 Calma 10 Noroeste 0 -- -- 7
2019-11-25 19:00:00 14.9 10 Noroeste 16 Oeste 0 -- -- 9
2019-11-25 18:00:00 15.3 12 Oeste 14 Oeste 0 -- -- 13
2019-11-25 17:00:00 16.3 5 Oeste 10 Oeste 0 -- -- 47
2019-11-25 16:00:00 14 2 Noroeste 12 Oeste 0 -- -- 85
2019-11-25 15:00:00 13.1 3 Oeste 10 Oeste 0 -- -- 65
2019-11-25 14:00:00 13.8 3 Noroeste 12 Oeste 0 -- -- 90
2019-11-25 13:00:00 15 3 Nordeste 14 Sur 0 -- -- 80
2019-11-25 12:00:00 15.2 4 Sudoeste 13 Sur 0 -- -- 78
2019-11-25 11:00:00 12.9 4 Sur 13 Nordeste 0 -- -- 79
2019-11-25 10:00:00 10 10 Nordeste 19 Norte 0 -- -- 83
2019-11-25 09:00:00 12.2 5 Sudeste 10 Este 0 -- -- 71
2019-11-25 08:00:00 14.6 2 Este 13 Este 0 -- -- 8
2019-11-25 07:00:00 13.1 13 Este 23 Este 0 -- -- 16
2019-11-25 06:00:00 13.4 20 Este 25 Este 0 -- -- 12
2019-11-25 05:00:00 12.8 21 Este 30 Este 0 -- -- 18
2019-11-25 04:00:00 11.9 26 Nordeste 31 Nordeste 0 -- -- 21
2019-11-25 03:00:00 12.5 25 Nordeste 29 Nordeste 0 -- -- 19
2019-11-25 02:00:00 11.2 25 Nordeste 33 Nordeste 0 -- -- 26
2019-11-25 01:00:00 11.5 32 Nordeste 37 Nordeste 0 -- -- 24
2019-11-25 00:00:00 9.7 31 Nordeste 38 Nordeste 0 -- -- 55
2019-11-24 23:00:00 9 34 Nordeste 42 Nordeste 0.2 -- -- 75
2019-11-24 22:00:00 8.8 33 Nordeste 38 Nordeste 0 -- -- 100
2019-11-24 21:00:00 7.9 32 Nordeste 39 Nordeste 0 -- -- 100
2019-11-24 20:00:00 8.3 32 Nordeste 37 Nordeste 0 -- -- 100
2019-11-24 19:00:00 8.1 34 Nordeste 39 Nordeste 0 -- -- 100
2019-11-24 18:00:00 9.3 30 Nordeste 36 Nordeste 0 -- -- 100
2019-11-24 17:00:00 10.1 24 Nordeste 29 Nordeste 0 -- -- 100
2019-11-24 16:00:00 10.3 23 Nordeste 28 Nordeste 0 -- -- 100
2019-11-24 15:00:00 11.1 11 Nordeste 24 Nordeste 0 -- -- 100
2019-11-24 14:00:00 11.4 17 Nordeste 29 Este 0 -- -- 100
2019-11-24 13:00:00 11.7 15 Este 33 Este 0 -- -- 100
2019-11-24 12:00:00 10.5 23 Nordeste 39 Nordeste 0 -- -- 100
2019-11-24 11:00:00 10.8 31 Nordeste 41 Nordeste 0 -- -- 100
2019-11-24 10:00:00 11.2 28 Nordeste 46 Nordeste 0 -- -- 100
2019-11-24 09:00:00 10.1 41 Nordeste 50 Nordeste 0 -- -- 100
2019-11-24 08:00:00 9.6 43 Nordeste 57 Nordeste 0.4 -- -- 100
2019-11-24 07:00:00 9.7 42 Nordeste 53 Este 0.2 -- -- 100
2019-11-24 06:00:00 10.2 36 Nordeste 46 Este 0.6 -- -- 100
2019-11-24 05:00:00 10.6 28 Nordeste 42 Nordeste 0.8 -- -- 100
2019-11-24 04:00:00 10.8 28 Nordeste 45 Nordeste 0.8 -- -- 100
2019-11-24 03:00:00 9.8 24 Nordeste 44 Nordeste 0 -- -- 100
2019-11-24 02:00:00 9 31 Nordeste 54 Nordeste 0 -- -- 100
2019-11-24 01:00:00 9.1 34 Nordeste 58 Nordeste 0 -- -- 100
2019-11-24 00:00:00 9.3 37 Nordeste 53 Nordeste 0 -- -- 100
2019-11-23 23:00:00 8.8 41 Nordeste 58 Nordeste 0 -- -- 100
2019-11-23 22:00:00 9.1 41 Nordeste 63 Nordeste 0 -- -- 100
2019-11-23 21:00:00 9.2 51 Nordeste 68 Nordeste 0 -- -- 100
2019-11-23 20:00:00 9.5 48 Nordeste 63 Este 0 -- -- 100
2019-11-23 19:00:00 10.1 45 Nordeste 61 Nordeste 0 -- -- 100
2019-11-23 18:00:00 10.3 38 Nordeste 53 Nordeste 0 -- -- 100
2019-11-23 17:00:00 10.8 34 Nordeste 48 Nordeste 0 -- -- 100
2019-11-23 16:00:00 11.3 26 Nordeste 49 Nordeste 0 -- -- 100
2019-11-23 15:00:00 11.2 37 Nordeste 48 Nordeste 0 -- -- 100
2019-11-23 14:00:00 11.9 31 Nordeste 48 Nordeste 0 -- -- 100
2019-11-23 13:00:00 11.8 30 Nordeste 54 Nordeste 0 -- -- 100
2019-11-23 12:00:00 11.7 30 Nordeste 44 Nordeste 0 -- -- 100
2019-11-23 11:00:00 11.9 29 Nordeste 49 Norte 0 -- -- 100
2019-11-23 10:00:00 11.4 37 Nordeste 51 Nordeste 0 -- -- 100
2019-11-23 09:00:00 10.7 36 Nordeste 49 Nordeste 0.2 -- -- 100
2019-11-23 08:00:00 10.4 35 Norte 51 Nordeste 0 -- -- 100
2019-11-23 07:00:00 11.3 36 Nordeste 46 Nordeste 0 -- -- 100
2019-11-23 06:00:00 11.4 32 Norte 46 Nordeste 0.2 -- -- 100
2019-11-23 05:00:00 11.9 26 Norte 38 Norte 0 -- -- 100
2019-11-23 04:00:00 12.1 15 Norte 32 Norte 0 -- -- 100
2019-11-23 03:00:00 11.9 24 Norte 30 Norte 0.2 -- -- 100
2019-11-23 02:00:00 12 18 Norte 36 Norte 0 -- -- 100
2019-11-23 01:00:00 11.5 29 Norte 35 Norte 0 -- -- 100
2019-11-23 00:00:00 11.6 25 Norte 34 Norte 0 -- -- 100
2019-11-22 23:00:00 11.7 26 Norte 34 Norte 0 -- -- 100
2019-11-22 22:00:00 11.8 27 Norte 33 Norte 0 -- -- 100
2019-11-22 21:00:00 11.8 24 Norte 33 Norte 0 -- -- 100
2019-11-22 20:00:00 11.7 23 Nordeste 35 Nordeste 0 -- -- 100
2019-11-22 19:00:00 11.6 25 Nordeste 33 Nordeste 0 -- -- 100
2019-11-22 18:00:00 11.2 23 Norte 36 Nordeste 0 -- -- 100
2019-11-22 17:00:00 11.8 19 Nordeste 32 Nordeste 0 -- -- 100
2019-11-22 16:00:00 12.5 15 Nordeste 33 Nordeste 0 -- -- 100
2019-11-22 15:00:00 13.2 19 Nordeste 39 Nordeste 0 -- -- 94
2019-11-22 14:00:00 13.1 17 Nordeste 33 Nordeste 0 -- -- 88
2019-11-22 13:00:00 13.2 20 Nordeste 35 Norte 0 -- -- 73
2019-11-22 12:00:00 13.7 21 Nordeste 33 Norte 0 -- -- 50
2019-11-22 11:00:00 14.1 21 Norte 32 Norte 0 -- -- 35
2019-11-22 10:00:00 14 20 Norte 31 Norte 0 -- -- 40
2019-11-22 09:00:00 13.1 26 Norte 28 Norte 0 -- -- 50
2019-11-22 08:00:00 12.7 16 Norte 27 Norte 0 -- -- 49
2019-11-22 07:00:00 11.6 22 Norte 25 Norte 0 -- -- 64
2019-11-22 06:00:00 11.4 17 Norte 30 Norte 0 -- -- 68
2019-11-22 05:00:00 8.9 27 Norte 34 Norte 0 -- -- 100
2019-11-22 04:00:00 9.1 27 Norte 35 Norte 0 -- -- 100
2019-11-22 03:00:00 10.8 27 Norte 35 Norte 0.2 -- -- 100
2019-11-22 02:00:00 11.6 23 Norte 35 Norte 0 -- -- 100
2019-11-22 01:00:00 11.6 25 Norte 41 Norte 0.2 -- -- 100
2019-11-22 00:00:00 11.6 26 Norte 36 Norte 0 -- -- 100
2019-11-21 23:00:00 11.5 29 Norte 37 Norte 0 -- -- 100
2019-11-21 22:00:00 11.4 19 Noroeste 30 Noroeste 0 -- -- 100
2019-11-21 21:00:00 11.5 21 Noroeste 32 Oeste 0 -- -- 100
2019-11-21 20:00:00 11.4 26 Noroeste 32 Noroeste 0 -- -- 100
2019-11-21 19:00:00 11.1 17 Noroeste 34 Noroeste 0 -- -- 100
2019-11-21 18:00:00 11.2 23 Noroeste 51 Oeste 0 -- -- 100
2019-11-21 17:00:00 11.4 36 Noroeste 47 Oeste 0 -- -- 100
2019-11-21 16:00:00 12 24 Noroeste 44 Oeste 0 -- -- 100
2019-11-21 15:00:00 11.1 29 Noroeste 41 Oeste 0 -- -- 100
2019-11-21 14:00:00 11.6 16 Noroeste 26 Noroeste 0 -- -- 100
2019-11-21 13:00:00 12.5 10 Norte 28 Norte 0 -- -- 98
2019-11-21 12:00:00 12.2 17 Norte 28 Noroeste 0 -- -- 93
2019-11-21 11:00:00 10.5 21 Norte 38 Norte 0 -- -- 98
2019-11-21 10:00:00 9.2 23 Norte 30 Noroeste 0 -- -- 100
2019-11-21 09:00:00 8.7 21 Noroeste 38 Noroeste 0 -- -- 100
2019-11-21 08:00:00 7.9 27 Oeste 38 Noroeste 0 -- -- 100
2019-11-21 07:00:00 -- -- -- -- -- -- -- -- --
2019-11-21 06:00:00 -- -- -- -- -- -- -- -- --
2019-11-21 05:00:00 -- -- -- -- -- -- -- -- --
2019-11-21 04:00:00 -- -- -- -- -- -- -- -- --
2019-11-21 03:00:00 -- -- -- -- -- -- -- -- --
2019-11-21 02:00:00 -- -- -- -- -- -- -- -- --
2019-11-21 01:00:00 -- -- -- -- -- -- -- -- --
2019-11-21 00:00:00 -- -- -- -- -- -- -- -- --
2019-11-20 23:00:00 -- -- -- -- -- -- -- -- --
2019-11-20 22:00:00 -- -- -- -- -- -- -- -- --
2019-11-20 21:00:00 -- -- -- -- -- -- -- -- --
2019-11-20 20:00:00 -- -- -- -- -- -- -- -- --
2019-11-20 19:00:00 -- -- -- -- -- -- -- -- --
2019-11-20 18:00:00 10.6 12 Noroeste 18 Noroeste 0 -- -- 100
2019-11-20 17:00:00 11 12 Norte 33 Noroeste 0 -- -- 100
2019-11-20 16:00:00 11.3 24 Noroeste 33 Oeste 0.2 -- -- 100
2019-11-20 15:00:00 12.3 22 Oeste 34 Oeste 0 -- -- 100
2019-11-20 14:00:00 12.8 9 Oeste 22 Oeste 0 -- -- 97
2019-11-20 13:00:00 13.6 9 Noroeste 17 Noroeste 0 -- -- 74
2019-11-20 12:00:00 12.1 12 Norte 20 Noroeste 0 -- -- 86
2019-11-20 11:00:00 11.4 11 Norte 24 Norte 0 -- -- 70
2019-11-20 10:00:00 10.4 19 Norte 26 Norte 0 -- -- 66
2019-11-20 09:00:00 9.8 23 Norte 25 Norte 0 -- -- 60
2019-11-20 08:00:00 9.4 22 Norte 28 Norte 0 -- -- 75
2019-11-20 07:00:00 8.8 18 Norte 22 Noroeste 0 -- -- 89
2019-11-20 06:00:00 8.3 15 Noroeste 20 Noroeste 0 -- -- 100
2019-11-20 05:00:00 8.1 20 Noroeste 24 Noroeste 0 -- -- 100
2019-11-20 04:00:00 8 23 Noroeste 26 Noroeste 0.2 -- -- 100
2019-11-20 03:00:00 8.4 17 Noroeste 24 Norte 0 -- -- 100
2019-11-20 02:00:00 7.8 18 Norte 23 Norte 0 -- -- 100
2019-11-20 01:00:00 8 17 Norte 21 Norte 0 -- -- 100
2019-11-20 00:00:00 7.7 17 Norte 27 Norte 0 -- -- 100
2019-11-19 23:00:00 8.2 19 Norte 30 Norte 0 -- -- 100
2019-11-19 22:00:00 8.9 23 Norte 35 Norte 0 -- -- 100
2019-11-19 21:00:00 7.7 25 Norte 36 Norte 0 -- -- 100
2019-11-19 20:00:00 8 25 Norte 29 Norte 0 -- -- 85
2019-11-19 19:00:00 7.6 25 Nordeste 31 Norte 0 -- -- 88
2019-11-19 18:00:00 8.3 23 Norte 28 Norte 0 -- -- 69
2019-11-19 17:00:00 10.3 8 Norte 17 Norte 0 -- -- 59
2019-11-19 16:00:00 8.9 5 Nordeste 22 Norte 0 -- -- 100
2019-11-19 15:00:00 8.8 10 Norte 18 Norte 0 -- -- 100
2019-11-19 14:00:00 10.1 5 Noroeste 19 Sur 0 -- -- 100
2019-11-19 13:00:00 11.2 5 Sur 15 Este 0 -- -- 100
2019-11-19 12:00:00 8.7 10 Nordeste 28 Este 0 -- -- 100
2019-11-19 11:00:00 8.7 18 Nordeste 32 Norte 0 -- -- 100
2019-11-19 10:00:00 7.9 22 Norte 31 Nordeste 0 -- -- 100
2019-11-19 09:00:00 7.5 19 Nordeste 31 Nordeste 0 -- -- 100
2019-11-19 08:00:00 6.7 21 Nordeste 31 Norte 0 -- -- 100
2019-11-19 07:00:00 7.9 16 Norte 31 Nordeste 0 -- -- 100
2019-11-19 06:00:00 6.8 18 Nordeste 27 Nordeste 0 -- -- 100
2019-11-19 05:00:00 7 24 Nordeste 40 Nordeste 0 -- -- 100
2019-11-19 04:00:00 6.8 31 Nordeste 40 Nordeste 0 -- -- 100
2019-11-19 03:00:00 7 30 Nordeste 39 Nordeste 0 -- -- 100
2019-11-19 02:00:00 7.5 26 Nordeste 40 Nordeste 0.2 -- -- 100
2019-11-19 01:00:00 7.9 30 Nordeste 51 Nordeste 0.2 -- -- 100
2019-11-19 00:00:00 7.4 35 Nordeste 54 Nordeste 0 -- -- 100
2019-11-18 23:00:00 7.2 37 Nordeste 53 Nordeste 0 -- -- 100
2019-11-18 22:00:00 6.6 39 Nordeste 56 Nordeste 0 -- -- 100
2019-11-18 21:00:00 7.5 39 Nordeste 54 Nordeste 0 -- -- 100
2019-11-18 20:00:00 7.6 44 Nordeste 59 Nordeste 0 -- -- 100
2019-11-18 19:00:00 8.2 35 Nordeste 58 Nordeste 0.2 -- -- 100
2019-11-18 18:00:00 8.1 34 Nordeste 53 Este 1 -- -- 100
2019-11-18 17:00:00 8.3 23 Nordeste 40 Nordeste 0 -- -- 100
2019-11-18 16:00:00 8.6 19 Nordeste 35 Este 0 -- -- 100
2019-11-18 15:00:00 8.7 25 Nordeste 38 Este 0 -- -- 100
2019-11-18 14:00:00 8.5 26 Nordeste 45 Este 0 -- -- 100
2019-11-18 13:00:00 8.3 32 Nordeste 48 Nordeste 0 -- -- 100
2019-11-18 12:00:00 7.9 37 Nordeste 50 Nordeste 0 -- -- 100
2019-11-18 11:00:00 7.7 35 Nordeste 48 Nordeste 0 -- -- 100
2019-11-18 10:00:00 7.6 36 Nordeste 48 Nordeste 0 -- -- 100
2019-11-18 09:00:00 7.7 34 Nordeste 46 Nordeste 0.2 -- -- 100
2019-11-18 08:00:00 7.3 39 Nordeste 53 Nordeste 0 -- -- 100
2019-11-18 07:00:00 7.6 37 Nordeste 54 Nordeste 0.2 -- -- 100
2019-11-18 06:00:00 7.3 45 Nordeste 60 Nordeste 0 -- -- 100
2019-11-18 05:00:00 7.2 42 Nordeste 56 Nordeste 0 -- -- 100
2019-11-18 04:00:00 7.2 39 Nordeste 54 Nordeste 0 -- -- 100
2019-11-18 03:00:00 6.9 39 Nordeste 58 Nordeste 0 -- -- 100
2019-11-18 02:00:00 6.8 42 Nordeste 58 Nordeste 0 -- -- 100
2019-11-18 01:00:00 7.1 40 Nordeste 59 Nordeste 0.2 -- -- 100
2019-11-18 00:00:00 7 47 Nordeste 68 Nordeste 0 -- -- 100
2019-11-17 23:00:00 7.1 51 Nordeste 69 Nordeste 0.2 -- -- 100
2019-11-17 22:00:00 7.8 51 Nordeste 71 Nordeste 0.4 -- -- 100
2019-11-17 21:00:00 7.3 54 Nordeste 81 Nordeste 0.2 -- -- 100
2019-11-17 20:00:00 6.8 59 Nordeste 77 Nordeste 0.2 -- -- 100
2019-11-17 19:00:00 7.3 58 Nordeste 78 Nordeste 0.2 -- -- 100
2019-11-17 18:00:00 7.4 49 Nordeste 68 Nordeste 0.2 -- -- 100
2019-11-17 17:00:00 7.4 46 Nordeste 67 Nordeste 0 -- -- 100
2019-11-17 16:00:00 7.3 44 Nordeste 62 Nordeste 0 -- -- 100
2019-11-17 15:00:00 7.2 51 Nordeste 69 Este 0 -- -- 100
2019-11-17 14:00:00 7.4 46 Nordeste 66 Nordeste 0 -- -- 100
2019-11-17 13:00:00 7.9 43 Nordeste 66 Nordeste 0 -- -- 100
2019-11-17 12:00:00 7.4 48 Nordeste 69 Nordeste 0 -- -- 100
2019-11-17 11:00:00 -- -- -- -- -- -- -- -- --
2019-11-17 10:00:00 -- -- -- -- -- -- -- -- --
2019-11-17 09:00:00 -- -- -- -- -- -- -- -- --
2019-11-17 08:00:00 -- -- -- -- -- -- -- -- --
2019-11-17 07:00:00 -- -- -- -- -- -- -- -- --
2019-11-17 06:00:00 -- -- -- -- -- -- -- -- --
2019-11-17 05:00:00 -- -- -- -- -- -- -- -- --
2019-11-17 04:00:00 -- -- -- -- -- -- -- -- --
2019-11-17 03:00:00 -- -- -- -- -- -- -- -- --
2019-11-17 02:00:00 -- -- -- -- -- -- -- -- --
2019-11-17 01:00:00 -- -- -- -- -- -- -- -- --
2019-11-17 00:00:00 -- -- -- -- -- -- -- -- --
2019-11-16 23:00:00 -- -- -- -- -- -- -- -- --
2019-11-16 22:00:00 -- -- -- -- -- -- -- -- --
2019-11-16 21:00:00 -- -- -- -- -- -- -- -- --
2019-11-16 20:00:00 -- -- -- -- -- -- -- -- --
2019-11-16 19:00:00 -- -- -- -- -- -- -- -- --
2019-11-16 18:00:00 -- -- -- -- -- -- -- -- --
2019-11-16 17:00:00 -- -- -- -- -- -- -- -- --
2019-11-16 16:00:00 -- -- -- -- -- -- -- -- --
2019-11-16 15:00:00 8.1 62 Nordeste 85 Nordeste 0 -- -- 100
2019-11-16 14:00:00 7.2 62 Nordeste 78 Nordeste 0 -- -- 100
2019-11-16 13:00:00 7.3 55 Nordeste 79 Nordeste 0 -- -- 100
2019-11-16 12:00:00 7.1 57 Nordeste 92 Nordeste 0 -- -- 100
2019-11-16 11:00:00 7 62 Nordeste 86 Nordeste 0 -- -- 100
2019-11-16 10:00:00 6.5 63 Nordeste 95 Nordeste 0 -- -- 100
2019-11-16 09:00:00 6.6 71 Nordeste 101 Este 0.4 -- -- 100
2019-11-16 08:00:00 7.2 59 Nordeste 85 Nordeste 1 -- -- 100
2019-11-16 07:00:00 6.6 58 Nordeste 86 Nordeste 0.8 -- -- 100
2019-11-16 06:00:00 6.8 60 Nordeste 82 Nordeste 0.8 -- -- 100
2019-11-16 05:00:00 6.4 63 Nordeste 85 Nordeste 0.2 -- -- 100
2019-11-16 04:00:00 7 55 Nordeste 82 Nordeste 0.2 -- -- 100
2019-11-16 03:00:00 6.6 54 Nordeste 84 Nordeste 0 -- -- 100
2019-11-16 02:00:00 6.5 60 Nordeste 82 Nordeste 0 -- -- 100
2019-11-16 01:00:00 6.7 63 Nordeste 90 Nordeste 0.2 -- -- 100
2019-11-16 00:00:00 7.3 59 Nordeste 92 Nordeste 0.6 -- -- 100